When you browse on this site, cookies collect data to enhance your experience and personalize the content and advertising you see.
Visit our Privacy Policy to learn more. By continuing to use the site, you agree to this use of cookies and data.
  • In Deutschland
  • Länderverzeichnis
  • Für 7 Tage
  • Wassertemperatur
  • Wetterkarte
  • Widgets
  • user-avatar
    Anmelden

    Stündliche Wetter Giumri

    Heute, 25 Februar, Dienstag

    Zeit Temperatur Niederschläge Wind Luftdruck Luftfeuchtigkeit
    00:00 -1°C° 0 mm 3 m/S 628 mmHg 84%
    01:00 -1°C° 0 mm 3 m/S 627 mmHg 84%
    02:00 -1°C° 0 mm 3 m/S 627 mmHg 84%
    03:00 -1°C° 0 mm 3 m/S 626 mmHg 83%
    04:00 -1°C° 0.2 mm 3 m/S 626 mmHg 85%
    05:00 -1°C° 0.2 mm 2 m/S 626 mmHg 87%
    06:00 -1°C° 0.2 mm 2 m/S 626 mmHg 90%
    07:00 -1°C° 1.2 mm 3 m/S 626 mmHg 90%
    08:00 -1°C° 1.2 mm 3 m/S 626 mmHg 91%
    09:00 -2°C° 0 mm 4 m/S 626 mmHg 91%
    10:00 -3°C° 1 mm 4 m/S 626 mmHg 90%
    11:00 -2°C° 1 mm 3 m/S 627 mmHg 88%
    12:00 -2°C° 1 mm 3 m/S 627 mmHg 87%
    13:00 -3°C° 0.3 mm 4 m/S 627 mmHg 81%
    14:00 -3°C° 0.3 mm 4 m/S 628 mmHg 74%
    15:00 -4°C° 0.3 mm 5 m/S 628 mmHg 68%
    16:00 -5°C° 0 mm 4 m/S 628 mmHg 70%
    17:00 -6°C° 0 mm 3 m/S 629 mmHg 71%
    18:00 -7°C° 0 mm 2 m/S 629 mmHg 73%
    19:00 -8°C° 0 mm 2 m/S 629 mmHg 74%
    20:00 -9°C° 0 mm 2 m/S 630 mmHg 74%
    21:00 -9°C° 0 mm 2 m/S 630 mmHg 75%
    22:00 -10°C° 0 mm 2 m/S 630 mmHg 75%
    23:00 -10°C° 0 mm 2 m/S 630 mmHg 75%

    Morgen, 26 Februar, Mittwoch

    Zeit Temperatur Niederschläge Wind Luftdruck Luftfeuchtigkeit
    00:00 -12°C° 0 mm 2 m/S 630 mmHg 74%
    01:00 -12°C° 0 mm 2 m/S 629 mmHg 73%
    02:00 -10°C° 0 mm 1 m/S 629 mmHg 71%
    03:00 -10°C° 0 mm 1 m/S 629 mmHg 69%
    04:00 -10°C° 0 mm 1 m/S 629 mmHg 67%
    05:00 -10°C° 0 mm 1 m/S 629 mmHg 64%
    06:00 -10°C° 0 mm 1 m/S 629 mmHg 62%
    07:00 -9°C° 0 mm 1 m/S 630 mmHg 60%
    08:00 -8°C° 0 mm 1 m/S 631 mmHg 59%
    09:00 -6°C° 0 mm 1 m/S 632 mmHg 57%
    10:00 -5°C° 0 mm 0 m/S 632 mmHg 57%
    11:00 -4°C° 0 mm 0 m/S 632 mmHg 56%
    12:00 -3°C° 0 mm 0 m/S 633 mmHg 55%
    13:00 -2°C° 0 mm 0 m/S 633 mmHg 57%
    14:00 -2°C° 0 mm 0 m/S 633 mmHg 59%
    15:00 -1°C° 0 mm 0 m/S 632 mmHg 61%
    16:00 -3°C° 0 mm 0 m/S 632 mmHg 62%
    17:00 -4°C° 0 mm 0 m/S 632 mmHg 62%
    18:00 -6°C° 0 mm 0 m/S 632 mmHg 63%
    19:00 -6°C° 0 mm 0 m/S 632 mmHg 61%
    20:00 -6°C° 0 mm 1 m/S 633 mmHg 59%
    21:00 -6°C° 0 mm 1 m/S 633 mmHg 56%
    22:00 -6°C° 0 mm 1 m/S 633 mmHg 57%
    23:00 -6°C° 0 mm 1 m/S 633 mmHg 58%

    übermorgen, 27 Februar, Donnerstag

    Zeit Temperatur Niederschläge Wind Luftdruck Luftfeuchtigkeit
    00:00 -7°C° 0 mm 1 m/S 633 mmHg 59%
    01:00 -7°C° 0 mm 1 m/S 633 mmHg 61%
    02:00 -7°C° 0 mm 1 m/S 633 mmHg 62%
    03:00 -7°C° 0 mm 1 m/S 633 mmHg 64%
    04:00 -7°C° 0 mm 1 m/S 632 mmHg 64%
    05:00 -7°C° 0 mm 1 m/S 632 mmHg 64%
    06:00 -8°C° 0 mm 1 m/S 632 mmHg 64%
    07:00 -6°C° 0 mm 1 m/S 633 mmHg 64%
    08:00 -4°C° 0 mm 1 m/S 633 mmHg 64%
    09:00 -3°C° 0 mm 1 m/S 633 mmHg 63%
    10:00 -2°C° 0 mm 1 m/S 633 mmHg 62%
    11:00 -1°C° 0 mm 1 m/S 633 mmHg 61%
    12:00 0°C° 0 mm 1 m/S 633 mmHg 60%
    13:00 +1°C° 0 mm 1 m/S 633 mmHg 60%
    14:00 +1°C° 0 mm 1 m/S 633 mmHg 61%
    15:00 +2°C° 0 mm 1 m/S 632 mmHg 61%
    16:00 0°C° 0 mm 1 m/S 632 mmHg 60%
    17:00 -1°C° 0 mm 1 m/S 632 mmHg 59%
    18:00 -2°C° 0 mm 1 m/S 631 mmHg 59%
    19:00 -2°C° 0 mm 1 m/S 631 mmHg 58%
    20:00 -2°C° 0 mm 1 m/S 631 mmHg 58%
    21:00 -2°C° 0 mm 1 m/S 631 mmHg 58%
    22:00 -2°C° 0 mm 1 m/S 631 mmHg 59%
    23:00 -2°C° 0 mm 1 m/S 630 mmHg 60%

    28 Februar, Freitag

    Zeit Temperatur Niederschläge Wind Luftdruck Luftfeuchtigkeit
    00:00 -2°C° 0 mm 1 m/S 630 mmHg 61%
    01:00 -5°C° 0 mm 2 m/S 630 mmHg 62%
    02:00 -5°C° 0 mm 2 m/S 629 mmHg 62%
    03:00 -5°C° 0 mm 2 m/S 629 mmHg 62%
    04:00 -5°C° 0 mm 2 m/S 629 mmHg 62%
    05:00 -5°C° 0 mm 2 m/S 628 mmHg 62%
    06:00 -5°C° 0 mm 2 m/S 628 mmHg 61%
    07:00 -4°C° 0 mm 2 m/S 628 mmHg 62%
    08:00 -3°C° 0 mm 2 m/S 629 mmHg 62%
    09:00 -2°C° 0 mm 2 m/S 629 mmHg 63%
    10:00 -1°C° 0 mm 2 m/S 629 mmHg 62%
    11:00 0°C° 0 mm 3 m/S 629 mmHg 62%
    12:00 +1°C° 0 mm 3 m/S 629 mmHg 61%
    13:00 +1°C° 0 mm 4 m/S 629 mmHg 62%
    14:00 +3°C° 0 mm 4 m/S 629 mmHg 64%
    15:00 +3°C° 0 mm 4 m/S 629 mmHg 65%
    16:00 +1°C° 0 mm 4 m/S 629 mmHg 68%
    17:00 +1°C° 0 mm 3 m/S 629 mmHg 72%
    18:00 +1°C° 0 mm 2 m/S 629 mmHg 75%
    19:00 +1°C° 0 mm 2 m/S 629 mmHg 77%
    20:00 +1°C° 0 mm 2 m/S 629 mmHg 79%
    21:00 -1°C° 0 mm 2 m/S 630 mmHg 81%
    22:00 -1°C° 0 mm 2 m/S 630 mmHg 83%
    23:00 0°C° 0 mm 1 m/S 629 mmHg 85%

    29 Februar, Samstag

    Zeit Temperatur Niederschläge Wind Luftdruck Luftfeuchtigkeit
    00:00 0°C° 0 mm 1 m/S 629 mmHg 87%
    01:00 0°C° 0 mm 1 m/S 629 mmHg 88%
    02:00 0°C° 0 mm 1 m/S 628 mmHg 88%
    03:00 0°C° 0 mm 1 m/S 628 mmHg 88%
    04:00 0°C° 0.1 mm 1 m/S 628 mmHg 89%
    05:00 0°C° 0.1 mm 1 m/S 628 mmHg 89%
    06:00 0°C° 0.1 mm 1 m/S 628 mmHg 90%
    07:00 -1°C° 0 mm 2 m/S 628 mmHg 86%
    08:00 +1°C° 0 mm 2 m/S 628 mmHg 83%
    09:00 +2°C° 0 mm 2 m/S 627 mmHg 79%
    10:00 +2°C° 0 mm 3 m/S 627 mmHg 75%
    11:00 +3°C° 0 mm 4 m/S 627 mmHg 71%
    12:00 +3°C° 0 mm 5 m/S 627 mmHg 67%
    13:00 +4°C° 0.1 mm 4 m/S 626 mmHg 67%
    14:00 +4°C° 0.1 mm 4 m/S 626 mmHg 67%
    15:00 +4°C° 0.1 mm 4 m/S 625 mmHg 67%
    16:00 +3°C° 0.4 mm 3 m/S 625 mmHg 74%
    17:00 +2°C° 0.4 mm 3 m/S 625 mmHg 81%
    18:00 +1°C° 0.4 mm 2 m/S 625 mmHg 88%
    19:00 +1°C° 0.1 mm 2 m/S 625 mmHg 88%
    20:00 +1°C° 0.1 mm 2 m/S 625 mmHg 89%
    21:00 -1°C° 0.1 mm 2 m/S 625 mmHg 89%
    22:00 -1°C° 0.1 mm 2 m/S 625 mmHg 89%
    23:00 +1°C° 0.1 mm 1 m/S 626 mmHg 90%

    1 März, Sonntag

    Zeit Temperatur Niederschläge Wind Luftdruck Luftfeuchtigkeit
    00:00 +1°C° 0.1 mm 1 m/S 626 mmHg 90%
    01:00 -2°C° 0.5 mm 2 m/S 626 mmHg 90%
    02:00 -2°C° 0.5 mm 3 m/S 625 mmHg 90%
    03:00 -4°C° 0.5 mm 3 m/S 625 mmHg 90%
    04:00 -4°C° 0.4 mm 3 m/S 625 mmHg 89%
    05:00 -5°C° 0.4 mm 3 m/S 625 mmHg 88%
    06:00 -7°C° 0.4 mm 4 m/S 625 mmHg 86%
    07:00 -5°C° 0 mm 4 m/S 626 mmHg 80%
    08:00 -5°C° 0 mm 4 m/S 626 mmHg 73%
    09:00 -5°C° 0 mm 4 m/S 626 mmHg 67%
    10:00 -5°C° 0 mm 5 m/S 626 mmHg 64%
    11:00 -5°C° 0 mm 6 m/S 627 mmHg 62%
    12:00 -5°C° 0 mm 6 m/S 627 mmHg 60%
    13:00 -6°C° 0 mm 7 m/S 627 mmHg 60%
    14:00 -6°C° 0 mm 7 m/S 628 mmHg 60%
    15:00 -6°C° 0 mm 7 m/S 628 mmHg 60%
    16:00 -6°C° 0 mm 6 m/S 628 mmHg 61%
    17:00 -7°C° 0 mm 5 m/S 629 mmHg 62%
    18:00 -7°C° 0 mm 4 m/S 629 mmHg 64%
    19:00 -8°C° 0 mm 4 m/S 630 mmHg 66%
    20:00 -8°C° 0 mm 3 m/S 630 mmHg 69%
    21:00 -9°C° 0 mm 3 m/S 631 mmHg 72%
    22:00 -9°C° 0 mm 3 m/S 631 mmHg 73%
    23:00 -10°C° 0 mm 3 m/S 631 mmHg 74%
    Mehr zeigen